QPF
0.00 0.00 0.00 0.00 0.00 0.00 0.00 0.00 0.00 0.00 0.00 0.00 0.01 0.01 0.00 0.00 0.00 0.00 0.00 0.00 0.01 0.01 0.00 0.00 0.00 0.00 0.00 0.00 0.00 0.00 0.00 0.00 0.00 0.00 0.00 0.00 0.00 0.00 0.00 0.00 0.01 0.01 0.00 0.00
0.00 0.00 0.00 0.00 0.00 0.00 0.00 0.00 0.00 0.00 0.00 0.00 0.00 0.00 0.00 0.00 0.00 0.00 0.00 0.00 0.03 0.02 0.00 0.00 0.00 0.00 0.00 0.00 0.00 0.00 0.00 0.00 0.00 0.00 0.00 0.00 0.00 0.00 0.00 0.00 0.00 0.00 0.00 0.00
0.00 0.00 0.00 0.00 0.00 0.00 0.00 0.00 0.00 0.00 0.00 0.00 0.00 0.00 0.00 0.00 0.00 0.00 0.00 0.00 0.02 0.11 0.02 0.00 0.00 0.00 0.00 0.00 0.00 0.00 0.00 0.00 0.00 0.00 0.00 0.00 0.00 0.01 0.00 0.00 0.00 0.00 0.00 0.00
0.00 0.00 0.00 0.00 0.00 0.00 0.01 0.00 0.00 0.00 0.00 0.00 0.00 0.00 0.00 0.00 0.00 0.00 0.00 0.00 0.00 0.05 0.02 0.01 0.00 0.00 0.00 0.00 0.00 0.00 0.01 0.00 0.00 0.00 0.00 0.00 0.00 0.01 0.00 0.00 0.00 0.00 0.00 0.00
0.00 0.00 0.00 0.00 0.00 0.00 0.00 0.00 0.00 0.00 0.00 0.00 0.00 0.00 0.00 0.00 0.00 0.00 0.00 0.00 0.00 0.00 0.00 0.01 0.01 0.00 0.00 0.00 0.00 0.00 0.01 0.03 0.03 0.02 0.03 0.02 0.00 0.00 0.00 0.00 0.00 0.00 0.01 0.02
0.00 0.00 0.00 0.00 0.00 0.00 0.00 0.00 0.00 0.00 0.00 0.00 0.00 0.00 0.00 0.00 0.00 0.00 0.00 0.00 0.00 0.00 0.00 0.01 0.02 0.02 0.01 0.01 0.00 0.00 0.00 0.03 0.05 0.02 0.03 0.01 0.00 0.00 0.00 0.01 0.02 0.01 0.04 0.09
0.00 0.00 0.00 0.00 0.00 0.00 0.00 0.00 0.00 0.00 0.00 0.00 0.00 0.00 0.00 0.00 0.00 0.00 0.00 0.00 0.00 0.00 0.00 0.00 0.01 0.05 0.00 0.00 0.00 0.01 0.00 0.02 0.09 0.07 0.03 0.02 0.01 0.02 0.04 0.10 0.15 0.16 0.12 0.17
0.00 0.00 0.00 0.00 0.00 0.00 0.00 0.00 0.00 0.00 0.00 0.00 0.00 0.00 0.00 0.00 0.00 0.00 0.00 0.00 0.00 0.00 0.00 0.00 0.00 0.02 0.01 0.00 0.00 0.00 0.01 0.02 0.05 0.04 0.02 0.06 0.04 0.08 0.11 0.18 0.20 0.23 0.24 0.16
0.00 0.00 0.00 0.00 0.00 0.00 0.00 0.00 0.00 0.00 0.00 0.00 0.00 0.00 0.00 0.00 0.00 0.00 0.00 0.00 0.00 0.00 0.00 0.00 0.00 0.00 0.01 0.00 0.00 0.00 0.00 0.00 0.00 0.01 0.01 0.02 0.01 0.11 0.20 0.19 0.17 0.14 0.12 0.04
0.00 0.00 0.00 0.00 0.00 0.00 0.00 0.00 0.00 0.00 0.00 0.00 0.00 0.00 0.00 0.00 0.00 0.00 0.00 0.00 0.00 0.00 0.00 0.00 0.00 0.00 0.00 0.00 0.00 0.00 0.00 0.00 0.00 0.00 0.00 0.01 0.01 0.04 0.16 0.26 0.14 0.07 0.05 0.00
0.00 0.00 0.00 0.00 0.00 0.00 0.00 0.00 0.00 0.00 0.00 0.00 0.00 0.00 0.00 0.00 0.00 0.00 0.00 0.00 0.00 0.00 0.00 0.00 0.00 0.00 0.00 0.00 0.00 0.00 0.00 0.00 0.00 0.00 0.00 0.00 0.00 0.00 0.10 0.09 0.05 0.03 0.00 0.00
0.00 0.00 0.00 0.00 0.00 0.00 0.00 0.00 0.00 0.00 0.00 0.00 0.00 0.00 0.00 0.00 0.00 0.00 0.00 0.00 0.00 0.00 0.00 0.00 0.00 0.00 0.00 0.00 0.00 0.00 0.00 0.00 0.00 0.00 0.00 0.00 0.04 0.10 0.05 0.03 0.01 0.00 0.00 0.00
0.00 0.00 0.00 0.00 0.00 0.00 0.00 0.00 0.00 0.00 0.00 0.00 0.00 0.00 0.00 0.00 0.00 0.00 0.00 0.00 0.00 0.00 0.00 0.00 0.00 0.00 0.00 0.00 0.00 0.00 0.00 0.00 0.00 0.00 0.00 0.02 0.07 0.04 0.01 0.00 0.00 0.00 0.00 0.00
0.00 0.00 0.00 0.00 0.00 0.00 0.00 0.00 0.00 0.00 0.00 0.00 0.00 0.00 0.00 0.00 0.00 0.00 0.00 0.00 0.00 0.00 0.00 0.00 0.00 0.00 0.00 0.00 0.00 0.00 0.00 0.00 0.00 0.00 0.00 0.01 0.01 0.01 0.00 0.00 0.00 0.00 0.00 0.00
0.00 0.00 0.00 0.00 0.00 0.00 0.00 0.00 0.00 0.00 0.00 0.00 0.00 0.00 0.00 0.00 0.00 0.00 0.00 0.00 0.00 0.00 0.00 0.00 0.00 0.00 0.00 0.00 0.00 0.00 0.00 0.00 0.00 0.00 0.00 0.00 0.02 0.02 0.00 0.00 0.00 0.00 0.00 0.00
0.00 0.00 0.00 0.00 0.00 0.00 0.00 0.00 0.00 0.00 0.00 0.00 0.00 0.00 0.00 0.00 0.00 0.00 0.00 0.00 0.00 0.00 0.00 0.00 0.00 0.00 0.00 0.00 0.00 0.00 0.00 0.00 0.00 0.00 0.00 0.01 0.00 0.00 0.00 0.00 0.00 0.00 0.00 0.00
0.00 0.00 0.00 0.00 0.00 0.00 0.00 0.00 0.00 0.00 0.00 0.00 0.00 0.00 0.00 0.00 0.00 0.00 0.00 0.00 0.00 0.00 0.00 0.00 0.00 0.00 0.00 0.00 0.00 0.00 0.00 0.00 0.00 0.00 0.00 0.00 0.00 0.00 0.00 0.00 0.00 0.00 0.00 0.00
0.00 0.00 0.00 0.00 0.00 0.00 0.00 0.00 0.00 0.00 0.00 0.00 0.00 0.00 0.00 0.00 0.00 0.00 0.00 0.00 0.00 0.00 0.00 0.00 0.00 0.00 0.00 0.00 0.00 0.00 0.00 0.00 0.00 0.00 0.00 0.00 0.00 0.00 0.00 0.00 0.00 0.00 0.00 0.00
0.00 0.00 0.00 0.00 0.00 0.00 0.00 0.00 0.00 0.00 0.00 0.00 0.00 0.00 0.00 0.00 0.00 0.00 0.00 0.00 0.00 0.00 0.00 0.00 0.00 0.00 0.00 0.00 0.00 0.00 0.00 0.00 0.00 0.00 0.00 0.00 0.00 0.00 0.00 0.00 0.00 0.00 0.00 0.00
0.00 0.00 0.00 0.00 0.00 0.00 0.00 0.00 0.00 0.00 0.00 0.00 0.00 0.00 0.00 0.00 0.00 0.00 0.00 0.00 0.00 0.00 0.00 0.00 0.00 0.00 0.00 0.00 0.00 0.00 0.00 0.00 0.00 0.00 0.00 0.00 0.00 0.00 0.00 0.00 0.00 0.00 0.00 0.00
0.00 0.00 0.00 0.00 0.00 0.00 0.00 0.00 0.00 0.00 0.00 0.00 0.00 0.00 0.00 0.00 0.00 0.00 0.00 0.00 0.00 0.00 0.00 0.00 0.00 0.00 0.00 0.00 0.00 0.00 0.00 0.00 0.00 0.00 0.00 0.00 0.00 0.00 0.00 0.00 0.00 0.00 0.00 0.00
0.00 0.00 0.00 0.00 0.00 0.00 0.00 0.00 0.00 0.00 0.00 0.00 0.00 0.00 0.00 0.00 0.00 0.00 0.00 0.00 0.00 0.00 0.00 0.00 0.00 0.00 0.00 0.00 0.00 0.00 0.00 0.00 0.00 0.00 0.00 0.00 0.00 0.00 0.00 0.00 0.00 0.00 0.00 0.00
0.00 0.00 0.00 0.00 0.00 0.00 0.00 0.00 0.00 0.00 0.00 0.00 0.00 0.00 0.00 0.00 0.00 0.00 0.00 0.00 0.00 0.00 0.00 0.00 0.00 0.00 0.00 0.00 0.00 0.00 0.00 0.00 0.00 0.00 0.00 0.00 0.00 0.00 0.00 0.00 0.00 0.00 0.00 0.00
0.00 0.00 0.00 0.00 0.00 0.00 0.00 0.00 0.00 0.00 0.00 0.00 0.00 0.00 0.00 0.00 0.00 0.00 0.00 0.00 0.00 0.00 0.00 0.00 0.00 0.00 0.00 0.00 0.00 0.00 0.00 0.00 0.00 0.00 0.00 0.00 0.00 0.00 0.00 0.00 0.00 0.00 0.00 0.00
0.00 0.00 0.00 0.00 0.00 0.00 0.00 0.00 0.00 0.00 0.00 0.00 0.00 0.00 0.00 0.00 0.00 0.00 0.00 0.00 0.00 0.00 0.00 0.00 0.00 0.00 0.00 0.00 0.00 0.00 0.00 0.00 0.00 0.00 0.00 0.00 0.00 0.00 0.00 0.00 0.00 0.00 0.00 0.00
0.00 0.00 0.00 0.00 0.00 0.00 0.00 0.00 0.00 0.00 0.00 0.00 0.00 0.00 0.00 0.00 0.00 0.00 0.00 0.00 0.00 0.00 0.00 0.00 0.00 0.00 0.00 0.00 0.00 0.00 0.00 0.00 0.00 0.00 0.00 0.00 0.00 0.00 0.00 0.00 0.00 0.00 0.00 0.00
MSLP
1007.52 1008.47 1008.68 1008.72 1009.17 1009.33 1009.92 1010.69 1010.95 1010.78 1010.85 1011.35 1011.39 1011.01 1010.98 1010.97 1011.35 1011.27 1011.90 1012.70 1013.42 1013.87 1014.28 1014.93 1015.44 1015.95 1016.54 1017.01 1017.49 1017.83 1018.14 1018.38 1018.69 1019.07 1019.44 1019.78 1019.97 1020.23 1020.29 1020.18 1020.24 1020.45 1020.23 1020.17
1008.27 1008.45 1008.29 1008.81 1009.22 1009.67 1010.05 1010.75 1011.13 1011.06 1011.20 1011.67 1011.63 1011.18 1010.71 1010.87 1010.69 1010.83 1011.63 1012.65 1013.41 1014.15 1014.53 1014.83 1015.26 1015.76 1016.32 1016.79 1017.32 1017.70 1017.95 1018.25 1018.51 1018.74 1019.18 1019.46 1019.72 1019.82 1019.95 1020.04 1020.03 1019.93 1019.66 1019.80
1007.78 1007.67 1007.67 1008.59 1009.41 1009.94 1010.50 1010.96 1011.03 1011.32 1011.80 1011.90 1011.98 1011.48 1010.91 1010.25 1010.27 1010.74 1011.19 1012.29 1013.16 1013.63 1013.90 1014.48 1014.93 1015.40 1016.01 1016.50 1016.93 1017.27 1017.65 1018.06 1018.47 1018.79 1019.16 1019.45 1019.48 1019.50 1019.51 1019.36 1019.40 1018.96 1019.11 1019.32
1007.50 1007.00 1007.60 1008.40 1008.97 1009.52 1010.38 1010.45 1011.03 1011.98 1012.49 1012.65 1012.45 1011.72 1010.59 1009.88 1009.85 1010.09 1010.72 1011.22 1011.81 1012.85 1013.78 1014.18 1014.52 1015.00 1015.44 1016.04 1016.49 1016.95 1017.50 1018.02 1018.60 1019.01 1019.25 1019.33 1019.34 1019.51 1019.18 1019.15 1019.00 1018.83 1018.83 1018.82
1006.83 1006.87 1007.48 1007.99 1008.35 1009.19 1010.54 1010.77 1011.61 1012.31 1013.38 1013.48 1012.95 1012.67 1010.43 1009.80 1009.69 1009.40 1009.62 1010.15 1011.01 1011.68 1012.71 1013.40 1013.98 1014.42 1014.98 1015.74 1016.10 1016.61 1017.20 1017.94 1018.47 1018.88 1019.01 1019.28 1019.45 1019.30 1019.06 1018.98 1018.88 1018.85 1018.79 1018.67
1006.58 1006.60 1007.35 1008.00 1008.74 1009.16 1010.65 1011.85 1012.75 1013.26 1014.24 1014.56 1013.19 1012.88 1010.68 1009.52 1008.15 1008.30 1008.54 1009.16 1010.16 1010.90 1012.01 1012.86 1013.86 1014.13 1014.76 1015.42 1015.79 1016.22 1017.08 1018.01 1018.08 1018.38 1018.61 1018.83 1019.01 1019.10 1019.28 1018.98 1019.00 1018.98 1019.07 1019.00
1007.07 1007.14 1007.82 1007.96 1009.37 1010.35 1011.08 1012.41 1013.77 1014.70 1015.24 1014.96 1013.94 1013.13 1009.84 1008.25 1007.64 1007.12 1007.42 1007.91 1009.03 1010.00 1011.28 1012.47 1013.26 1013.69 1014.22 1014.89 1015.37 1016.10 1017.09 1017.46 1018.02 1018.33 1018.17 1018.51 1018.65 1018.68 1018.82 1018.87 1019.02 1019.10 1019.23 1018.88
1007.72 1007.93 1008.02 1008.14 1008.56 1009.61 1011.33 1012.35 1013.63 1014.97 1015.72 1015.15 1014.08 1012.19 1009.06 1007.27 1006.72 1006.55 1006.69 1007.31 1008.62 1009.73 1010.69 1011.51 1012.29 1012.92 1013.63 1014.29 1014.93 1015.53 1016.53 1016.76 1017.55 1017.62 1017.90 1018.02 1018.32 1018.77 1018.96 1019.14 1019.01 1018.97 1018.88 1018.41
1007.55 1007.67 1007.52 1007.94 1008.42 1009.35 1011.33 1012.39 1013.07 1014.36 1015.39 1015.38 1013.22 1011.04 1008.31 1006.77 1006.65 1006.42 1007.10 1007.55 1008.38 1009.34 1010.17 1010.86 1011.60 1012.17 1012.89 1013.77 1014.36 1014.89 1015.69 1016.24 1016.74 1017.08 1017.77 1017.86 1018.13 1018.56 1018.74 1018.60 1018.53 1018.29 1018.20 1018.06
1007.13 1007.79 1007.81 1008.26 1008.30 1009.52 1010.09 1011.20 1012.89 1014.22 1015.08 1014.80 1012.72 1011.08 1008.89 1007.17 1006.70 1006.72 1007.05 1007.46 1008.34 1009.05 1009.87 1010.51 1010.97 1011.55 1012.23 1013.11 1013.85 1014.41 1014.87 1015.39 1015.98 1016.47 1016.98 1017.25 1017.93 1018.02 1018.24 1018.30 1018.14 1018.20 1018.30 1018.05
1007.09 1007.66 1008.64 1008.41 1008.21 1008.61 1010.16 1011.03 1012.09 1013.08 1014.06 1013.81 1012.72 1010.00 1007.47 1006.86 1006.60 1006.49 1006.59 1007.02 1007.81 1008.71 1009.44 1010.01 1010.49 1011.11 1011.73 1012.69 1013.35 1013.84 1014.38 1014.93 1015.47 1016.03 1016.40 1016.80 1017.34 1017.50 1017.80 1018.16 1018.31 1018.46 1018.48 1018.54
1007.10 1007.76 1008.60 1007.87 1007.20 1007.56 1008.48 1009.29 1010.51 1011.93 1013.28 1013.20 1012.36 1008.95 1006.72 1006.09 1006.03 1006.02 1006.41 1006.73 1007.38 1008.01 1008.87 1009.58 1010.18 1010.83 1011.52 1012.24 1013.02 1013.47 1014.06 1014.46 1014.99 1015.63 1016.08 1016.51 1017.16 1017.61 1017.75 1018.20 1018.66 1018.83 1018.90 1018.89
1007.46 1008.13 1008.52 1008.13 1007.77 1007.72 1007.94 1008.68 1009.54 1010.21 1011.16 1011.73 1011.41 1008.34 1006.44 1005.89 1005.96 1005.99 1006.10 1006.70 1007.26 1008.12 1008.85 1009.70 1010.27 1010.78 1011.27 1011.90 1012.61 1013.16 1013.71 1014.23 1014.70 1015.45 1015.97 1016.59 1017.33 1017.60 1017.97 1018.42 1018.71 1019.07 1019.19 1019.35
1007.66 1008.40 1008.11 1007.68 1007.17 1006.96 1007.40 1007.64 1008.32 1008.85 1010.34 1010.37 1009.36 1007.63 1006.64 1006.00 1005.82 1006.02 1006.25 1006.47 1007.02 1007.74 1008.39 1009.26 1010.03 1010.55 1011.03 1011.57 1012.20 1012.98 1013.82 1014.16 1014.69 1015.47 1016.17 1016.80 1017.22 1017.74 1018.29 1018.78 1019.21 1019.39 1019.65 1019.90
1008.36 1008.78 1008.18 1007.08 1006.33 1006.03 1005.85 1006.23 1007.06 1007.61 1007.36 1007.79 1007.08 1006.75 1005.39 1005.40 1005.11 1005.18 1005.23 1006.26 1007.23 1007.65 1008.30 1008.78 1009.60 1010.17 1010.68 1011.39 1012.08 1012.74 1013.54 1014.25 1014.88 1015.64 1016.28 1016.81 1017.43 1018.02 1018.50 1019.02 1019.48 1019.83 1020.17 1020.47
1009.81 1009.49 1008.90 1007.53 1006.18 1005.96 1005.68 1005.13 1005.37 1005.67 1006.12 1006.17 1005.75 1005.29 1004.15 1004.00 1004.44 1004.74 1005.25 1005.80 1006.68 1007.14 1007.31 1007.99 1008.96 1009.61 1010.39 1011.00 1011.73 1012.54 1013.48 1014.30 1014.86 1015.58 1016.24 1016.88 1017.52 1018.14 1018.76 1019.37 1019.92 1020.27 1020.70 1020.90
1010.71 1010.04 1009.52 1008.29 1006.92 1006.16 1005.55 1003.92 1004.25 1004.13 1004.04 1004.27 1004.43 1003.12 1003.40 1003.72 1003.91 1003.95 1004.45 1005.04 1005.59 1006.14 1006.62 1007.24 1008.05 1008.92 1009.76 1010.55 1011.40 1012.43 1013.26 1014.10 1014.86 1015.61 1016.40 1017.02 1017.73 1018.42 1019.13 1019.66 1020.19 1020.66 1021.06 1021.35
1011.19 1010.83 1010.19 1009.36 1007.62 1006.18 1003.28 1002.09 1001.92 1002.13 1001.95 1002.28 1002.11 1002.18 1002.28 1002.70 1002.71 1002.64 1003.10 1003.54 1004.40 1005.33 1005.68 1006.47 1007.48 1008.43 1009.50 1010.36 1011.54 1012.61 1013.40 1014.08 1014.94 1015.80 1016.46 1017.22 1018.01 1018.78 1019.41 1019.96 1020.56 1021.17 1021.59 1021.79
1011.03 1011.01 1010.80 1009.81 1008.28 1005.81 1003.12 1001.86 1001.56 1001.76 1000.99 1000.67 1000.95 1001.38 1002.04 1002.24 1002.64 1002.58 1002.54 1002.64 1002.75 1003.61 1004.25 1005.10 1006.68 1007.76 1009.15 1010.30 1011.45 1012.46 1013.46 1014.23 1014.99 1015.72 1016.44 1017.19 1017.92 1018.62 1019.42 1020.18 1020.92 1021.44 1021.82 1022.09
1011.10 1011.15 1010.98 1010.35 1008.42 1006.06 1002.86 1000.99 1000.05 1000.92 1000.19 999.28 999.91 1000.58 1001.48 1002.07 1002.43 1001.67 1001.68 1002.02 1002.50 1002.84 1003.97 1005.00 1006.48 1007.81 1009.07 1010.36 1011.15 1012.21 1013.22 1014.03 1014.71 1015.43 1016.26 1017.10 1017.92 1018.62 1019.50 1020.27 1021.03 1021.55 1021.86 1022.27
1011.53 1011.43 1010.70 1009.95 1008.09 1005.27 1002.47 1001.53 1000.88 1001.44 1000.19 999.02 999.01 999.83 1000.80 1001.25 1000.77 1000.44 1000.78 1001.15 1001.70 1002.89 1003.85 1004.92 1006.38 1007.36 1008.60 1009.96 1010.79 1012.02 1012.92 1013.53 1014.35 1015.26 1016.17 1017.12 1018.02 1018.77 1019.58 1020.40 1021.07 1021.66 1022.17 1022.63
1010.42 1010.61 1010.38 1009.69 1007.76 1005.33 1002.65 1002.22 1002.26 1002.55 1000.71 1000.28 999.90 1000.04 1000.42 999.98 1000.14 1000.28 1000.39 1001.22 1001.88 1002.84 1004.31 1005.07 1006.50 1007.56 1008.62 1009.60 1010.29 1011.50 1012.81 1013.46 1014.25 1015.27 1016.18 1017.17 1018.09 1018.82 1019.68 1020.43 1021.30 1021.97 1022.52 1023.12
1010.71 1009.85 1009.30 1007.93 1005.59 1004.08 1003.40 1003.51 1003.35 1003.28 1002.85 1001.64 1000.92 1000.04 999.82 999.44 999.63 999.73 1000.38 1000.73 1001.61 1002.52 1003.32 1004.53 1005.84 1007.38 1008.60 1009.26 1009.89 1010.92 1012.31 1013.26 1014.13 1015.25 1016.27 1017.19 1018.09 1018.96 1019.80 1020.69 1021.51 1022.31 1022.83 1023.10
1010.75 1010.25 1009.56 1007.79 1005.33 1004.58 1004.46 1004.18 1004.00 1003.93 1003.66 1002.93 1002.11 1000.60 999.58 998.93 998.65 999.37 999.77 1000.60 1001.38 1002.50 1003.48 1004.48 1005.67 1007.07 1008.16 1009.06 1009.75 1010.52 1011.90 1013.00 1013.94 1015.18 1016.29 1017.12 1018.01 1018.99 1019.89 1020.63 1021.29 1021.96 1022.54 1023.05
1011.74 1010.75 1009.44 1007.99 1006.23 1005.07 1004.61 1004.69 1004.64 1003.86 1003.25 1002.87 1002.16 1001.81 1000.32 998.79 998.75 998.72 999.26 1000.20 1000.67 1001.94 1003.18 1004.12 1005.04 1006.05 1007.36 1008.54 1009.47 1010.53 1011.45 1012.51 1013.81 1015.00 1016.12 1017.12 1017.99 1018.69 1019.61 1020.31 1020.96 1021.39 1021.83 1022.00
1011.47 1010.30 1009.48 1008.19 1007.37 1007.16 1006.24 1005.59 1004.96 1004.65 1003.92 1003.57 1003.19 1001.03 1000.18 999.55 998.71 998.69 999.15 999.34 1000.16 1001.43 1002.74 1003.99 1005.16 1005.80 1007.10 1008.27 1009.24 1010.17 1010.98 1011.83 1013.11 1014.46 1015.65 1016.58 1017.44 1018.28 1019.21 1020.07 1020.94 1021.20 1021.45 1021.99
Thickness
5804 5782 5773 5788 5788 5784 5776 5762 5761 5770 5778 5767 5759 5769 5775 5782 5780 5785 5777 5774 5768 5764 5768 5767 5764 5761 5755 5750 5746 5744 5742 5741 5740 5737 5736 5734 5734 5736 5738 5743 5746 5748 5754 5758
5785 5770 5792 5795 5792 5782 5777 5760 5756 5765 5772 5760 5762 5766 5780 5781 5783 5787 5778 5774 5768 5763 5761 5764 5764 5760 5756 5751 5747 5746 5745 5743 5742 5741 5738 5739 5738 5739 5741 5742 5746 5753 5759 5761
5775 5790 5805 5793 5780 5774 5764 5760 5760 5762 5762 5767 5758 5756 5766 5783 5788 5786 5785 5781 5770 5764 5764 5764 5764 5762 5759 5754 5751 5749 5746 5745 5743 5742 5740 5738 5739 5740 5742 5746 5752 5761 5765 5766
5785 5805 5797 5785 5783 5781 5760 5779 5777 5761 5750 5732 5755 5730 5764 5779 5780 5785 5780 5784 5781 5770 5765 5767 5767 5765 5764 5760 5757 5753 5750 5745 5741 5739 5738 5738 5739 5736 5744 5747 5755 5763 5767 5770
5785 5793 5786 5782 5790 5792 5770 5780 5771 5762 5740 5737 5746 5733 5759 5778 5772 5783 5787 5788 5787 5784 5776 5773 5772 5772 5770 5765 5761 5756 5752 5746 5742 5740 5739 5737 5738 5741 5748 5752 5759 5764 5768 5770
5791 5808 5796 5791 5793 5793 5784 5764 5752 5748 5734 5714 5742 5738 5753 5765 5789 5793 5798 5796 5791 5789 5783 5780 5775 5775 5772 5768 5765 5761 5754 5746 5745 5742 5741 5740 5738 5741 5744 5753 5758 5763 5765 5767
5778 5783 5787 5793 5771 5780 5772 5750 5715 5718 5712 5708 5729 5732 5768 5793 5801 5809 5806 5805 5801 5798 5790 5782 5777 5776 5775 5772 5771 5765 5756 5751 5747 5745 5744 5743 5744 5747 5750 5755 5759 5761 5761 5765
5744 5741 5769 5790 5782 5771 5759 5752 5720 5709 5703 5713 5734 5730 5771 5807 5815 5821 5820 5816 5806 5796 5794 5791 5787 5784 5782 5780 5776 5772 5763 5759 5752 5753 5750 5750 5750 5749 5752 5753 5758 5760 5762 5768
5741 5749 5788 5790 5791 5786 5758 5745 5752 5722 5718 5708 5733 5758 5794 5810 5812 5819 5812 5813 5806 5799 5798 5797 5796 5794 5790 5786 5782 5780 5774 5768 5764 5759 5755 5753 5754 5751 5752 5757 5762 5766 5770 5774
5764 5746 5775 5780 5793 5782 5773 5769 5737 5720 5712 5709 5730 5741 5764 5797 5804 5812 5812 5812 5808 5806 5803 5802 5804 5802 5800 5794 5791 5788 5784 5779 5775 5771 5768 5764 5757 5759 5756 5763 5769 5770 5773 5774
5764 5759 5755 5772 5772 5765 5759 5752 5743 5738 5722 5721 5712 5749 5791 5801 5809 5812 5818 5821 5816 5811 5809 5809 5810 5810 5807 5801 5798 5794 5789 5785 5781 5778 5775 5772 5769 5770 5769 5769 5771 5772 5773 5773
5768 5749 5732 5758 5789 5792 5784 5768 5760 5743 5732 5724 5715 5747 5813 5813 5819 5824 5821 5826 5823 5822 5818 5816 5815 5813 5810 5806 5801 5799 5795 5792 5787 5785 5783 5781 5776 5773 5774 5774 5771 5771 5771 5772
5765 5737 5722 5741 5763 5779 5777 5775 5767 5758 5748 5733 5726 5759 5813 5817 5818 5824 5824 5826 5824 5821 5819 5815 5813 5814 5814 5810 5805 5804 5801 5796 5793 5789 5787 5784 5778 5778 5777 5775 5773 5771 5771 5771
5766 5737 5741 5742 5756 5775 5767 5777 5776 5769 5739 5745 5749 5781 5799 5812 5814 5819 5825 5829 5827 5828 5826 5820 5814 5816 5817 5815 5810 5806 5801 5799 5796 5791 5787 5783 5783 5781 5777 5774 5772 5771 5770 5768
5752 5740 5749 5762 5776 5783 5787 5785 5779 5772 5779 5775 5780 5780 5806 5812 5819 5824 5835 5829 5824 5826 5826 5826 5821 5819 5819 5817 5814 5811 5806 5799 5795 5790 5788 5786 5784 5781 5778 5774 5771 5769 5768 5765
5733 5731 5740 5753 5773 5774 5777 5787 5789 5791 5785 5787 5795 5794 5824 5832 5831 5827 5830 5831 5827 5830 5836 5834 5829 5826 5823 5822 5818 5814 5806 5800 5797 5793 5791 5788 5784 5780 5776 5773 5768 5766 5763 5762
5720 5725 5722 5736 5745 5760 5749 5781 5785 5798 5805 5800 5785 5820 5827 5827 5829 5832 5833 5837 5837 5838 5842 5839 5836 5833 5829 5826 5822 5814 5810 5805 5800 5795 5791 5787 5783 5778 5774 5770 5767 5764 5761 5758
5712 5714 5707 5715 5738 5721 5777 5809 5815 5811 5823 5821 5827 5827 5832 5834 5844 5848 5853 5851 5847 5845 5848 5846 5842 5838 5832 5829 5822 5815 5811 5807 5800 5794 5790 5785 5781 5776 5772 5767 5762 5758 5755 5754
5709 5704 5705 5708 5707 5739 5778 5796 5801 5794 5811 5835 5834 5833 5829 5840 5844 5847 5856 5862 5864 5861 5862 5859 5851 5845 5836 5829 5823 5817 5810 5806 5801 5795 5790 5786 5782 5777 5770 5763 5757 5755 5753 5751
5690 5692 5697 5685 5706 5713 5769 5809 5829 5817 5790 5848 5843 5837 5831 5832 5817 5838 5860 5866 5867 5870 5865 5859 5851 5844 5837 5829 5826 5819 5812 5808 5803 5798 5792 5787 5781 5774 5767 5762 5757 5755 5753 5749
5673 5678 5687 5685 5700 5728 5778 5796 5816 5763 5803 5851 5852 5843 5832 5828 5847 5863 5867 5871 5873 5868 5864 5859 5850 5845 5839 5832 5828 5818 5813 5810 5806 5800 5793 5787 5779 5773 5767 5762 5758 5754 5750 5744
5679 5672 5677 5681 5691 5708 5785 5789 5773 5780 5815 5828 5838 5841 5833 5844 5844 5855 5864 5863 5864 5863 5857 5855 5845 5841 5838 5834 5830 5821 5812 5810 5806 5798 5793 5785 5778 5773 5767 5762 5756 5750 5745 5740
5663 5680 5685 5697 5712 5751 5768 5772 5778 5783 5795 5812 5822 5839 5841 5845 5846 5854 5856 5863 5865 5863 5863 5858 5849 5839 5835 5834 5832 5824 5816 5811 5805 5797 5790 5784 5777 5772 5766 5759 5752 5745 5741 5738
5657 5661 5668 5698 5730 5743 5749 5760 5767 5775 5783 5796 5807 5830 5841 5848 5857 5852 5859 5859 5863 5860 5858 5854 5846 5838 5833 5832 5830 5826 5817 5810 5803 5794 5787 5782 5776 5769 5763 5757 5752 5746 5741 5736
5630 5643 5660 5675 5710 5730 5741 5746 5752 5770 5783 5792 5804 5809 5830 5844 5847 5854 5859 5858 5865 5861 5857 5852 5847 5843 5836 5832 5828 5822 5818 5810 5800 5793 5785 5780 5774 5769 5762 5757 5752 5750 5746 5743
5617 5635 5646 5664 5683 5689 5708 5727 5742 5755 5769 5777 5784 5809 5824 5836 5844 5853 5854 5864 5864 5859 5855 5847 5840 5840 5833 5829 5824 5821 5817 5812 5802 5793 5786 5781 5775 5769 5763 5757 5750 5748 5747 5741